User: anonymous   Login
Location: Alberta Star Party
(51.6612°N, 112.9089°W)
Time: 22:24:56
(UTC-06:00)
Language:

AO-Echo - Orbit

View from above orbital plane
View from above orbital plane
View from above satellite
View from above satellite

Ground track
Ground track

The orbit data is extracted from the following two-line orbital elements,

1 28375U 04025K   15091.40906387  .00000340  00000-0  11346-3 0  9994
2 28375 098.2864 034.0880 0082277 200.6993 159.0858 14.41619153565425
Epoch (UTC): 01 April 2015 09:49:03
Eccentricity: 0.0082277
inclination: 98.2864°
perigee height: 694 km
apogee height: 812 km
right ascension of ascending node: 34.0880°
argument of perigee: 200.6993°
revolutions per day: 14.41619153
mean anomaly at epoch: 159.0858°
orbit number at epoch: 56542

The dashed part of the orbit path shows where the satellite is in the earth's shadow,  

DLR